Regional Weather Roundup
Issued by NWS Sioux Falls, SD

Home | Current Version | Previous Version | Text Only | Print | Product List | Glossary On
Versions: 1 2 3 4 5 6 7 8 9 10 11 12 13 14 15 16 17 18 19 20 21 22 23 24 25 26 27 28 29 30 31 32 33 34 35 36 37 38 39 40 41 42 43 44 45 46 47 48 49 50
000
ASUS43 KFSD 260702
RWRFSD

WEATHER ROUNDUP FOR SE SOUTH DAKOTA/SW MINNESOTA/NW IOWA
NATIONAL WEATHER SERVICE SIOUX FALLS SD
200 AM CDT THU MAY 26 2016

NOTE: "FAIR" INDICATES FEW OR NO CLOUDS BELOW 12,000 FEET WITH NO
SIGNIFICANT WEATHER AND OR OBSTRUCTIONS TO VISIBILITY.


SDZ038>040-050-052>070-260800-
SOUTHEAST SOUTH DAKOTA

CITY           SKY/WX    TMP DP  RH WIND       PRES   REMARKS
BROOKINGS      CLOUDY    55  52  89 NW5       29.80
CHAMBERLAIN    NOT AVBL
HURON          CLOUDY    55  51  86 NW5       29.82R
MADISON        FAIR      57  57 100 W3        29.81F
MITCHELL       MOCLDY    61  55  81 NW7       29.83S
SIOUX FALLS    CLOUDY    60  56  86 SW5       29.80F
WINNER         FAIR      55  50  83 SW6       29.88R
YANKTON        CLOUDY    61  55  82 SW8       29.82R
$$

MNZ071-072-080-081-089-090-097-098-260800-
SOUTHWEST MINNESOTA

CITY           SKY/WX    TMP DP  RH WIND       PRES   REMARKS
FAIRMONT       CLOUDY    59  39  47 W28G35    29.83R
JACKSON        TSTM      57  54  88 W10       29.86F
LUVERNE        CLOUDY    61  52  72 W8        29.79S
MARSHALL       CLOUDY    65  52  62 SW6       29.75F
MONTEVIDEO     CLOUDY    63  50  63 SW6       29.77S
PIPESTONE      CLOUDY    61  54  77 W5        29.78F
REDWOOD FALLS  CLOUDY    63  52  67 SE8       29.78R
TRACY          CLOUDY    67  53  61 SW15      29.75F
WINDOM         RAIN      61  54  77 CALM      29.82S
WORTHINGTON    CLOUDY    60  54  80 SE10      29.80F
$$

IAZ001>003-012>014-020>022-031-032-NEZ013-014-SDZ071-260800-
NORTHWEST IOWA

CITY           SKY/WX    TMP DP  RH WIND       PRES   REMARKS
CHEROKEE       CLOUDY    58  57  98 E10       29.83F
DENISON        CLOUDY    66  66 100 CALM      29.80F
ESTHERVILLE    CLOUDY    61  54  77 NW23G41   29.85F
SIOUX CITY     TSTM      62  57  83 NW6       29.86R
SPENCER        LGT RAIN  60  54  80 W6        29.85R
STORM LAKE     RAIN      59  55  88 NW15G35   29.89R
$$

ABBREVIATIONS USED IN REMARKS
   TC - TEMPERATURE IN CELSIUS
  WCI - WIND CHILL INDEX
   HX - HEAT INDEX
  VSB - VISIBILITY





USA.gov is the U.S. government's official web portal to all federal, state and local government web resources and services.